This is the latest recevied weather packets stored in our database for station/object N1YZ. If no packets are shown the sender has not sent any weather packets the latest 10 day(s).
| Time | Temp. | Humidity | Pressure | Rain* | Wind** | Luminosity | Snow |
|---|---|---|---|---|---|---|---|
| 1787833508 | 21.67° C | 99% | 1035.3 hPa | 0 mm | - | 21 W/m² | - |
| 1787833204 | 21.67° C | 99% | 1035.2 hPa | 0 mm | - | 14 W/m² | - |
| 1787832899 | 21.67° C | 99% | 1035.3 hPa | 0 mm | - | 7 W/m² | - |
| 1787832595 | 21.67° C | 99% | 1035.3 hPa | 0 mm | - | 8 W/m² | - |
| 1787832293 | 21.67° C | 99% | 1035.1 hPa | 0 mm | - | 8 W/m² | - |
| 1787831991 | 21.67° C | 99% | 1035.2 hPa | 0 mm | - | 8 W/m² | - |
| 1787831687 | 21.67° C | 99% | 1034.7 hPa | 0 mm | - | 11 W/m² | - |
| 1787831385 | 21.67° C | 99% | 1034.8 hPa | 0 mm | - | 11 W/m² | - |
| 1787831083 | 21.11° C | 99% | 1034.6 hPa | 0 mm | - | 8 W/m² | - |
| 1787830781 | 21.11° C | 99% | 1034.7 hPa | 0 mm | - | 5 W/m² | - |
| 1787830475 | 21.11° C | 99% | 1034.6 hPa | 0 mm | - | 4 W/m² | - |
| 1787830174 | 21.11° C | 99% | 1034.6 hPa | 0 mm | - | 3 W/m² | - |
| 1787829869 | 21.11° C | 99% | 1034.6 hPa | 0 mm | - | 2 W/m² | - |
| 1787829568 | 21.11° C | 99% | 1034.5 hPa | 0 mm | - | 1 W/m² | - |
| 1787829265 | 21.11° C | 99% | 1034.3 hPa | 0 mm | - | 1 W/m² | - |
| 1787828960 | 21.11° C | 99% | 1034.2 hPa | 0 mm | - | 0 W/m² | - |
| 1787828656 | 21.11° C | 99% | 1034.2 hPa | 0 mm | - | 0 W/m² | - |
| 1787828351 | 21.11° C | 99% | 1034.3 hPa | 0 mm | - | 0 W/m² | - |
| 1787828050 | 21.11° C | 99% | 1034.1 hPa | 0 mm | - | 0 W/m² | - |
| 1787827744 | 21.11° C | 99% | 1034 hPa | 0 mm | - | 0 W/m² | - |
| 1787827440 | 21.11° C | 99% | 1034.1 hPa | 0 mm | - | 0 W/m² | - |
| 1787827139 | 21.11° C | 99% | 1033.9 hPa | 0 mm | - | 0 W/m² | - |
| 1787826838 | 21.11° C | 99% | 1034.1 hPa | 0 mm | - | 0 W/m² | - |
| 1787826534 | 21.11° C | 99% | 1034 hPa | 0 mm | - | 0 W/m² | - |
| 1787826229 | 21.11° C | 99% | 1034.1 hPa | 0 mm | - | 0 W/m² | - |
* Rain latest hour (hover to see other rain measurements)
** Current wind speed in m/s (hover to see current wind gust speed)